星链-30798 (STARLINK-30798 )

导读

STARLINK-30798是美国太空探索技术公司(SpaceX)于2023年10月30日发射的星链卫星,归属美国。星链计划旨在构建全球卫星互联网星座,该卫星入轨后将为偏远地区、移动载体等提供低延迟宽带网络服务,进一步扩充星链星座的全球覆盖能力,助力卫星互联网服务的普及与拓展。

基本信息
目录编号:
58196
目录名称:
STARLINK-30798
国际标识:
2023-167X
轨道中心:
EARTH
卫星名称:
星链-30798
卫星全名:
星链-30798 (STARLINK-30798 )
卫星状态:
在轨 (已飞行962 天)
发射日期:
2023-10-30 UTC
国别 :
美国 (US)
星等 :
--
轨道信息
数据来源 国际轨道数据 AOE轨道数据
星历时间 2026-06-17T09:57:39+0800
1天前
查看轨道信息
2026-06-17T06:00:00+0800
1天前
查看轨道信息
半长轴 6861.161km 6861.222km
偏心率 0.0002295 0.0001678
轨道倾角 42.995° 43.002°
近地点辐角 261.882° 283.826°
升交点赤经 302.273° 303.207°
平近点角 98.177° 247.591°
近地点 481.449km 481.933km
远地点 484.599km 484.237km
周期 94.266分钟 94.267分钟
每日圈数 15.275885 15.275683
详细信息
固有亮度:
5
最大亮度:
0.3
卫星平台:
Starlink v2.0 mini
覆盖范围:
全球
运营商:
太空探索技术公司
运营商所在国:
美国
制造商(研发单位):
太空探索技术公司
制造商所在国:
美国
使用方式:
暂无
卫星简介
星链(Starlink)计划是由太空探索技术公司(SpaceX)提出的一个巨型低轨卫星互联网星座项目,计划在2019年至2024年间在太空搭建由约1.2万颗卫星组成的“星链”网络,其中1584颗将部署在地球上空550千米处的近地轨道,并从2020年开始工作。该卫星仍在工作。
2D轨道图
3D轨道图
轨道高度分析图
轨道倾角分析图
轨道综合分析图
查看轨道综合分析图